Regional Weather Roundup
Issued by NWS

Home | Current Version | Previous Version | Text Only | Print | Product List | Glossary On
Versions: 1 2 3 4 5 6 7 8 9 10 11 12 13 14 15 16 17 18 19 20 21 22 23 24 25 26 27 28 29 30 31 32 33 34 35 36 37 38 39 40 41 42 43 44 45 46 47 48 49 50
631
ASUS44 KLIX 200001
RWRLA
LOUISIANA WEATHER ROUNDUP
NATIONAL WEATHER SERVICE NEW ORLEANS LA
700 PM CDT SUN OCT 19 2014

NOTE: "FAIR" INDICATES FEW OR NO CLOUDS BELOW 12,000 FEET WITH NO
      SIGNIFICANT WEATHER AND/OR OBSTRUCTIONS TO VISIBILITY.
      SKY/WX - SKY CONDITION AND SIGNIFICANT WEATHER.
      TMP - AIR TEMPERATURE.    DP   - DEWPOINT TEMPERATURE.
      RH  - RELATIVE HUMIDITY.  PRES - PRESSURE.
      HX  - HEAT INDEX.         WCI  - WIND CHILL INDEX.

*  THESE STATIONS ARE NOT NWS OR FAA STATIONS AND ARE NOT UNDER
   NWS QUALITY CONTROL.

LAZ040-048-061>063-065-066-069-200100-
SOUTHEAST LOUISIANA

CITY           SKY/WX    TMP DP  RH WIND       PRES   REMARKS
N.O. AUDUBON     N/A     73  59  60 MISG        N/A
6HR MIN TEMP:  72; 6HR MAX TEMP:  77;

N.O. INTL ARPT PTCLDY    71  55  56 NE5       30.05S
6HR MIN TEMP:  71; 6HR MAX TEMP:  76;

N.O. LAKEFRONT CLEAR     70  57  63 E7        30.06R
6HR MIN TEMP:  70; 6HR MAX TEMP:  75;

N.O. DOWNTOWN* FAIR      72  54  53 NE6       30.06S
6HR MIN TEMP:  72; 6HR MAX TEMP:  75;

SLIDELL        CLEAR     64  58  80 CALM      30.06R
6HR MIN TEMP:  64; 6HR MAX TEMP:  77;

BATON ROUGE    CLEAR     66  57  72 N3        30.06R
6HR MIN TEMP:  66; 6HR MAX TEMP:  78;

BOOTHVILLE     CLEAR     72  64  76 NE7       30.05R
6HR MIN TEMP:  72; 6HR MAX TEMP:  76;

BELLE CHASSE   CLEAR     64  59  83 CALM      30.05R
6HR MIN TEMP:  64; 6HR MAX TEMP:  77;

BOGALUSA*      FAIR      62  54  73 N3        30.08R
6HR MIN TEMP:  62; 6HR MAX TEMP:  77;

NEW ROADS*     FAIR      66  58  73 NW3       30.07R
6HR MIN TEMP:  66; 6HR MAX TEMP:  75;

GONZALES*      FAIR      65  64  97 CALM      30.05S
6HR MIN TEMP:  65; 6HR MAX TEMP:  76;

HAMMOND*       NOT AVBL
HOUMA*         CLEAR     70  63  78 E6        30.04S
PORT FOURCHON* PTCLDY    73  66  78 NE10      30.07R

$$

LAZ041-044-053-054-200100-
SOUTHWEST LOUISIANA

CITY           SKY/WX    TMP DP  RH WIND       PRES   REMARKS
LAKE CHARLES   CLEAR     69  58  67 NE5       30.05R
6HR MIN TEMP:  69; 6HR MAX TEMP:  79;

LAFAYETTE      CLEAR     69  60  73 NE3       30.05S
6HR MIN TEMP:  69; 6HR MAX TEMP:  79;

PATTERSON      NOT AVBL
SALT POINT       N/A     74  64  71 CALM      30.03R
6HR MIN TEMP:  74; 6HR MAX TEMP:  80;

NEW IBERIA     CLEAR     71  61  70 NE6       30.05S
6HR MIN TEMP:  70; 6HR MAX TEMP:  80;

CHENAULT AIRPK NOT AVBL

$$

LAZ027-028-200100-
CENTRAL LOUISIANA

CITY           SKY/WX    TMP DP  RH WIND       PRES   REMARKS
FORT POLK      CLEAR     65  58  76 NE3       30.06S
6HR MIN TEMP:  65; 6HR MAX TEMP:  75;

ALEXANDRIA INT CLEAR     61  55  81 CALM      30.06R
6HR MIN TEMP:  61; 6HR MAX TEMP:  77;

ALEXANDRIA     CLEAR     61  55  81 CALM      30.08R
6HR MIN TEMP:  61; 6HR MAX TEMP:  76;


$$

LAZ001-002-200100-
NORTHWEST LOUISIANA

CITY           SKY/WX    TMP DP  RH WIND       PRES   REMARKS
SHREVEPORT     CLEAR     66  51  58 NE3       30.07S
6HR MIN TEMP:  66; 6HR MAX TEMP:  75;

BARKSDALE AFB  CLEAR     64  51  63 NE6       30.08S
6HR MIN TEMP:  64; 6HR MAX TEMP:  74;

DTN SHREVEPORT CLEAR     63  51  65 NE3       30.08S
6HR MIN TEMP:  63; 6HR MAX TEMP:  73;


$$

LAZ014-016-200100-
NORTHEAST LOUISIANA

CITY           SKY/WX    TMP DP  RH WIND       PRES   REMARKS
MONROE         CLEAR     60  50  69 CALM      30.10S
6HR MIN TEMP:  60; 6HR MAX TEMP:  73;

TALLULAH       CLEAR     58  51  78 N3        30.08S
6HR MIN TEMP:  57; 6HR MAX TEMP:  73;


$$




USA.gov is the U.S. government's official web portal to all federal, state and local government web resources and services.